North Englewood, Maryland
Current Conditions -  °F | °C
As of 4:15 AM on Friday 24 Oct 2014 (Local Time) from KCGS Reporting Station
Clear Clear  
Wind Chill: 55°   Ceiling: Unl
Heat Index: 55°   Visibility: 10mi
Dew Point: 41°   Wind: 9mph
Humidity: 58%   Direction: 320°NW
Pressure: 29.91"   Gusts: NA
Location:  38.9183°N, 76.8721°W
Report Text: KCGS 240815Z AUTO 32008KT 10SM CLR 13/05 A2991 RMK AO1
Loading
Personal Weather Stations






























Interactive Weather Map
Tropical Storm Tracking
New forecast layout! Learn more

10-Day Weather Forecast

Advertisements
Track Severe Weather on mobile